GW3843 Weather Reports


time (UTC)temp
C
wind
direction
speed
KPH
gust
KPH
rain 1hr
cm
rain 24hr
cm
rain mn
cm
humidity
%
barometer
mb
20260502123042 18 0 0.0 4.8 0.00 0.00 0.00 31 1013.8
20260502121540 20 145 1.6 12.9 0.00 0.00 0.00 31 1013.8
20260502114554 17 0 0.0 1.6 0.00 0.00 0.00 31 1013.5
20260502113044 17 0 0.0 0.0 0.00 0.00 0.00 30 1013.5
20260502111545 18 0 0.0 0.0 0.00 0.00 0.00 28 1013.7
20260502110041 19 0 0.0 1.6 0.00 0.00 0.00 26 1013.8
20260502104549 21 117 0.0 11.3 0.00 0.00 0.00 24 1013.7
20260502103044 22 335 3.2 14.5 0.00 0.00 0.00 23 1013.6
20260502101609 22 358 8.0 19.3 0.00 0.00 0.00 23 1013.6
20260502070054 22 27 0.0 4.8 0.00 0.00 0.00 22 1013.8
20260502064540 22 24 0.0 3.2 0.00 0.00 0.00 22 1014.0
20260502063053 22 57 0.0 4.8 0.00 0.00 0.00 22 1013.8
20260502061545 22 30 0.0 4.8 0.00 0.00 0.00 22 1013.6
20260502060043 22 39 1.6 4.8 0.00 0.00 0.00 22 1013.6
20260502054552 22 0 0.0 1.6 0.00 0.00 0.00 22 1013.5
20260502053045 23 0 0.0 4.8 0.00 0.00 0.00 21 1013.4
20260502051601 22 0 0.0 1.6 0.00 0.00 0.00 21 1013.3
20260502050044 23 76 0.0 3.2 0.00 0.00 0.00 20 1013.3
20260502044549 23 26 0.0 4.8 0.00 0.00 0.00 20 1013.2
20260502043040 23 0 0.0 3.2 0.00 0.00 0.00 20 1013.1
20260502041537 23 298 0.0 6.4 0.00 0.00 0.00 20 1012.9
20260502040053 23 0 0.0 3.2 0.00 0.00 0.00 20 1012.8
20260502034542 24 122 0.0 6.4 0.00 0.00 0.00 20 1012.6
20260502033050 24 0 0.0 4.8 0.00 0.00 0.00 20 1012.4
20260502031549 25 335 1.6 6.4 0.00 0.00 0.00 20 1012.1
20260502030045 25 24 0.0 6.4 0.00 0.00 0.00 20 1011.9
20260502024543 25 335 0.0 6.4 0.00 0.00 0.00 20 1011.7
20260502023059 25 0 1.6 4.8 0.00 0.00 0.00 20 1011.4
20260502021540 26 0 0.0 6.4 0.00 0.00 0.00 20 1011.2
20260502020058 26 37 1.6 8.0 0.00 0.00 0.00 19 1011.1
20260502014550 26 0 0.0 4.8 0.00 0.00 0.00 18 1011.1
20260502013058 27 0 1.6 12.9 0.00 0.00 0.00 18 1010.9
20260502011540 27 100 1.6 6.4 0.00 0.00 0.00 17 1010.9
20260502010039 27 0 3.2 11.3 0.00 0.00 0.00 18 1010.9
20260502004601 28 252 1.6 9.7 0.00 0.00 0.00 17 1010.8
20260502003054 28 231 1.6 8.0 0.00 0.00 0.00 17 1010.8
20260502001605 29 214 3.2 8.0 0.00 0.00 0.00 16 1010.9
20260502000057 30 259 3.2 12.9 0.00 0.00 0.00 15 1010.9
20260501234550 31 248 1.6 8.0 0.00 0.00 0.00 15 1010.8
20260501233053 31 6 1.6 9.7 0.00 0.00 0.00 15 1010.8
20260501231553 30 130 1.6 12.9 0.00 0.00 0.00 15 1010.8
20260501230040 30 25 1.6 8.0 0.00 0.00 0.00 15 1011.1
20260501224540 30 18 4.8 12.9 0.00 0.00 0.00 15 1011.1
20260501223044 30 271 1.6 11.3 0.00 0.00 0.00 16 1011.1
20260501221540 30 241 3.2 12.9 0.00 0.00 0.00 16 1011.5
20260501220111 30 235 0.0 11.3 0.00 0.00 0.00 16 1011.6
20260501214551 31 259 1.6 11.3 0.00 0.00 0.00 16 1011.8
20260501213040 31 18 1.6 8.0 0.00 0.00 0.00 16 1012.1
20260501211546 30 231 1.6 6.4 0.00 0.00 0.00 17 1012.2
20260501210056 30 39 1.6 11.3 0.00 0.00 0.00 17 1012.6
20260501204544 30 23 1.6 9.7 0.00 0.00 0.00 17 1012.7
20260501203051 30 0 1.6 11.3 0.00 0.00 0.00 18 1012.8
20260501201556 28 0 0.0 3.2 0.00 0.00 0.00 19 1012.8
20260501200046 29 132 3.2 12.9 0.00 0.00 0.00 18 1013.1
20260501194540 29 27 1.6 14.5 0.00 0.00 0.00 18 1013.1
20260501193047 28 188 1.6 9.7 0.00 0.00 0.00 19 1013.4
20260501191557 28 311 1.6 9.7 0.00 0.00 0.00 20 1013.4
20260501190040 28 0 1.6 8.0 0.00 0.00 0.00 21 1013.7
20260501184543 28 90 1.6 8.0 0.00 0.00 0.00 21 1013.9
20260501183100 28 333 3.2 16.1 0.00 0.00 0.00 20 1013.9
20260501181557 27 82 1.6 8.0 0.00 0.00 0.00 23 1014.1
20260501180051 27 68 1.6 8.0 0.00 0.00 0.00 23 1014.5
20260501174544 27 136 0.0 6.4 0.00 0.00 0.00 24 1014.7
20260501173049 26 236 1.6 11.3 0.00 0.00 0.00 25 1014.8
20260501171542 26 273 3.2 11.3 0.00 0.00 0.00 26 1014.6
20260501170049 25 250 1.6 6.4 0.00 0.00 0.00 28 1014.7
20260501164550 25 296 0.0 6.4 0.00 0.00 0.00 30 1014.6
20260501163053 24 128 0.0 4.8 0.00 0.00 0.00 32 1014.5
20260501161552 23 120 0.0 3.2 0.00 0.00 0.00 33 1014.5
20260501160113 23 0 0.0 8.0 0.00 0.00 0.00 34 1014.4
20260501154555 22 67 1.6 4.8 0.00 0.00 0.00 34 1014.3
20260501153050 22 0 0.0 4.8 0.00 0.00 0.00 36 1014.1
20260501151544 21 107 1.6 4.8 0.00 0.00 0.00 40 1013.9
20260501150049 21 73 1.6 4.8 0.00 0.00 0.00 43 1013.8
20260501144553 20 129 1.6 8.0 0.00 0.00 0.00 46 1013.6
20260501143108 20 131 1.6 6.4 0.00 0.00 0.00 48 1013.7